Weather Roundup
Issued by NWS

Home | Current Version | Previous Version | Text Only | Print | Product List | Glossary On
Versions: 1 2 3 4 5 6 7 8 9 10 11 12 13 14 15 16 17 18 19 20 21 22 23 24 25 26 27 28 29 30 31 32 33 34 35 36 37 38 39 40 41 42 43 44 45 46 47 48 49 50
335
NZUS93 KARX 221310
HRRWXR

CURRENT HOURLY OBSERVATIONS ACROSS
MUCH OF THE UPPER MISSISSIPPI VALLEY
NATIONAL WEATHER SERVICE LA CROSSE WI
800 AM CDT TUE AUG 22 2017


...SOUTHEAST MINNESOTA...


CITY           SKY/WX    TMP DP  RH WIND       PRES   REMARKS
ROCHESTER      CLOUDY    60  59  96 NW14      30.00R
ROCHESTER/MAYO CLOUDY    60  59  96 NW16G24   29.99R
WINONA         MOSUNNY   63  57  82 NW17      29.95R
AUSTIN         MOSUNNY   61  57  88 NW12      30.01R
ALBERT LEA     SUNNY     63  61  94 NW9G16    30.03R
DODGE CENTER   SUNNY     61  55  82 NW12      30.01R
PRESTON        MOSUNNY   60  58  90 NW12G17   29.99R
OWATONNA       SUNNY     59  57  94 NW7       30.03R
FARIBAULT      SUNNY     61  55  82 NW7       30.02R
$$

...ELSEWHERE IN MINNESOTA...


CITY           SKY/WX    TMP DP  RH WIND       PRES   REMARKS
MINNEAPOLIS    SUNNY     61  54  77 NW13      30.01R
INTNL FALLS    PTSUNNY   52  50  93 W10       29.91R
DULUTH         CLOUDY    53  53 100 NW12      29.93R
RED WING       SUNNY     63  55  77 NW7       29.97R
REDWOOD FALLS  SUNNY     56  52  86 NW10      30.09R
MANKATO        SUNNY     58  55  90 NW10      30.05R
WORTHINGTON    SUNNY     56  51  84 NW9       30.13R
FAIRMONT       SUNNY     58  54  86 NW10      30.08R
$$

...SOUTHWEST WISCONSIN...


CITY           SKY/WX    TMP DP  RH WIND       PRES   REMARKS
LA CROSSE      SUNNY     69  60  73 NW17      29.92R
PRAIRIE DU CHI CLOUDY    65  60  82 NW7       29.92S
BOSCOBEL       MOSUNNY   67  62  84 W6        29.91R
LONE ROCK      CLOUDY    67  64  90 W5        29.89R
PLATTEVILLE    CLOUDY    65  65 100 W8        29.93R
FORT MC COY    MOSUNNY   63  59  87 NW9       29.92R
CAMP DOUGLAS   MOSUNNY   66  63  88 NW13G18   29.89R
MAUSTON-NEW LI CLOUDY    66  62  87 NW14G20   29.88R
VIROQUA        CLOUDY    64  63  97 CALM      29.93R
WIS DELLS      CLOUDY    66  61  84 W10       29.87S
$$

...ELSEWHERE IN WISCONSIN...


CITY           SKY/WX    TMP DP  RH WIND       PRES   REMARKS
MILWAUKEE      CLOUDY    71  62  73 W10G22    29.82S
MADISON        CLOUDY    66  62  87 VRB6      29.86R
GREEN BAY      MOSUNNY   69  66  90 W13       29.78R
EAU CLAIRE     MOSUNNY   62  56  80 NW9       29.93R
BLACK RVR FLS  PTSUNNY   65  61  88 NW9       29.91R
MEDFORD        MOSUNNY   58  54  86 NW10      29.90R
WAUSAU         MOSUNNY   62  54  74 NW13G20   29.86R
WIS RAPIDS     MOSUNNY   64  57  78 NW16G23   29.89R
MARSHFIELD     SUNNY     62  55  77 NW10G21   29.89R
RICE LAKE      MOSUNNY   59  54  82 NW8       29.97R
$$

...NORTHEAST IOWA...


CITY           SKY/WX    TMP DP  RH WIND       PRES   REMARKS
WATERLOO       SUNNY     63  60  90 NW13      29.98R
DUBUQUE        PTSUNNY   65  62  90 NW10      29.94R
DECORAH        MOSUNNY   63  61  94 NW9       29.95R
MASON CITY     NOT AVBL
CHARLES CITY   SUNNY     63  63 100 NW13      30.01R
OELWEIN        PTSUNNY   63  63 100 NW13G20   29.98R
$$

...ELSEWHERE IN IOWA...


CITY           SKY/WX    TMP DP  RH WIND       PRES   REMARKS
DES MOINES     MOSUNNY   66  62  87 NW9       30.04R
IOWA CITY      MOSUNNY   67  64  90 W9        29.98R
FORT DODGE     SUNNY     59  54  82 NW7       30.07R
MARSHALLTOWN   SUNNY     63  61  93 NW13      30.01R
CEDAR RAPIDS   CLOUDY    64  64 100 NW10      29.97R
$$

...NORTHERN ILLINOIS...


CITY           SKY/WX    TMP DP  RH WIND       PRES   REMARKS
CHICAGO-OHARE  CLOUDY    71  66  84 SW12      29.87S
CHICAGO-MIDWAY CLOUDY    71  68  90 SW9       29.87F
MOLINE         CLOUDY    69  64  84 W9        29.94R
ROCKFORD       CLOUDY    69  64  84 W8        29.91R
PEORIA         CLOUDY    69  68  96 CALM      29.94S
$$

NOTE: "FAIR" INDICATES FEW OR NO CLOUDS BELOW 12,000 FEET WITH NO
SIGNIFICANT WEATHER AND/OR OBSTRUCTIONS TO VISIBILITY. WIND
SPEEDS ARE IN MILES-PER-HOUR.




USA.gov is the U.S. government's official web portal to all federal, state and local government web resources and services.